Hourly Data Report for November 01, 2019

All times are specified in Local Standard Time (LST). Add 1 hour to adjust for Daylight Saving Time where and when it is observed.

SATURNA ISLAND CS
BRITISH COLUMBIA
Current Station Operator: ECCC - MSC

48°47'02.067" N
123°02'41.082" W
24.40 m
1017101
71473
WEZ

Download Data

Hourly Data (November 2019)
Hourly Data Report for November 1, 2019
TIME Temp Definition
°C
Dew Point Definition
°C
Rel Hum Definition
%
Wind Dir Definition
10's deg

Wind Spd Definition
km/h
Visibility Definition
km
Stn Press Definition
kPa
Hmdx Definition


Wind Chill Definition


Weather Definition


00:00 7.5 5.2 85 33 5   102.82     LegendNANA
01:00 6.8 3.3 78 2 14   102.87     LegendNANA
02:00 6.7 3.4 80 1 10   102.86     LegendNANA
03:00 6.7 3.9 82 1 8   102.88     LegendNANA
04:00 6.2 3.6 84 33 3   102.89     LegendNANA
05:00 6.4 3.9 84 33 5   102.90     LegendNANA
06:00 6.7 4.0 83 33 5   102.90     LegendNANA
07:00 6.6 5.0 90 28 2   102.93     LegendNANA
08:00 7.8 5.7 87 32 6   102.95     LegendNANA
09:00 8.2 4.9 79 34 8   102.96     LegendNANA
10:00 9.0 4.3 73 32 5   102.97     LegendNANA
11:00 9.2 3.4 67 31 8   102.97     LegendNANA
12:00 9.3 3.9 69 29 5   102.92     LegendNANA
13:00 9.8 5.7 75 30 4   102.89     LegendNANA
14:00 9.4 5.7 78 31 5   102.84     LegendNANA
15:00 8.9 6.3 84 33 9   102.82     LegendNANA
16:00 8.5 6.7 89 32 6   102.76     LegendNANA
17:00 8.3 7.1 92 30 3   102.73     LegendNANA
18:00 8.2 6.8 91 29 3   102.71     LegendNANA
19:00 8.6 7.1 90 31 6   102.68     LegendNANA
20:00 8.7 7.2 90 32 6   102.65     LegendNANA
21:00 8.6 7.3 92 31 6   102.66     LegendNANA
22:00 8.4 7.0 91 30 4   102.64     LegendNANA
23:00 7.9 6.9 93 30 3   102.65     LegendNANA

Notes on Data Quality.

Legend

  • E = Estimated
  • M = Missing
  • NA = Not Available
Date modified: